Weather Roundup
Issued by NWS Springfield, MO

Home | Current Version | Previous Version | Text Only | Print | Product List | Glossary On
Versions: 1 2 3 4 5 6 7 8 9 10 11 12 13 14 15 16 17 18 19 20 21 22 23 24 25 26 27 28 29 30 31 32 33 34 35 36 37 38 39 40 41 42 43 44 45 46 47 48 49 50
000
NZUS99 KSGF 262007
HRRSGF

HOURLY WEATHER
NATIONAL WEATHER SERVICE SPRINGFIELD MO
200 PM CST THU FEB 26 2015

......SGF CWA......

CITY           SKY/WX    TMP DP  RH WIND       PRES   REMARKS
SPRINGFIELD    SUNNY     26   8  46 NW17G25   30.28S WCI  13
JOPLIN         SUNNY     26   3  37 N14G25    30.36S WCI  14
WEST PLAINS    CLOUDY    24  12  60 NW12G20   30.25R WCI  13
ROLLA          CLOUDY    20  11  68 NW15      30.26R WCI   6
OSAGE BEACH    MOSUNNY   25   9  50 N12G23    30.32S WCI  14
BRANSON        CLOUDY    25  10  54 NW18G28   30.27F WCI  11

......SURROUNDING SGF CWA......

CITY           SKY/WX    TMP DP  RH WIND       PRES   REMARKS
CHANUTE        SUNNY     26   4  38 N17       30.39F WCI  13
PARSONS        SUNNY     27   3  35 N14G23    30.40F WCI  16
COFFEYVILLE    SUNNY     28   3  34 N12G23    30.40F WCI  18
EMPORIA        SUNNY     23   1  38 N16G24    30.41F WCI  10
GROVE OK       MOSUNNY   30  10  43 NW9G20    30.38S WCI  22
ROGERS AR      MOSUNNY   26  10  50 NW10G21   30.30F WCI  16
SILOAM SPRINGS PTSUNNY   25   7  46 N12       30.32F WCI  14
HARRISON AR    PTSUNNY   27  12  53 N10       30.26S WCI  17
NEAR YELLVILLE PTSUNNY   28  12  50 NW13G20   30.28R WCI  18

......KANSAS AND MISSOURI......

CITY           SKY/WX    TMP DP  RH WIND       PRES   REMARKS
KANSAS CTY INT MOSUNNY   20   2  45 N16G24    30.42R WCI   6
DOWNTOWN KC    SUNNY     22   0  38 N13       30.43R WCI  10
COLUMBIA       CLOUDY    22   8  55 NW15G22   30.32R WCI   9
SEDALIA        SUNNY     22   5  48 N17       30.38S WCI   8
ST JOSEPH      MOSUNNY   17   0  47 N15G24    30.48R WCI   2
ST LOUIS       LGT SNOW  23  15  71 NW13      30.28R WCI  11
SPIRIT OF STL  FLURRIES  24  13  62 N15       30.29R WCI  11
KIRKSVILLE     SUNNY     16   1  51 N15G25    30.38R WCI   1
WICHITA        MOSUNNY   25  -3  29 N15G24    30.42F WCI  13
TOPEKA         SUNNY     21   0  39 NW13G22   30.46F WCI   9
OLATHE         SUNNY     20   0  41 N10G21    30.40R WCI   9

......TENNESSEE......

CITY           SKY/WX    TMP DP  RH WIND       PRES   REMARKS
MEMPHIS        CLOUDY    38  28  67 N14G22    30.17R WCI  30
NASHVILLE      PTSUNNY   46  22  38 NW14      30.06R

......ARKANSAS.......

CITY           SKY/WX    TMP DP  RH WIND       PRES   REMARKS
FAYETTEVILLE   PTSUNNY   26  12  55 N10G24    30.30S WCI  16
FT SMITH       FAIR      34  15  46 NW18      30.31F WCI  23
LITTLE ROCK    PTSUNNY   41  25  53 NW14G24   30.23S

......OKLAHOMA.......

CITY           SKY/WX    TMP DP  RH WIND       PRES   REMARKS
TULSA          CLOUDY    28   8  43 N18       30.41S WCI  15
PONCA CITY     MOSUNNY   29   0  28 N13G26    30.42F WCI  19
MCALESTER      PTSUNNY   32  14  47 N18       30.35S WCI  20
OKLAHOMA CITY  PTSUNNY   30   4  33 N20G28    30.36S WCI  17

......IOWA............

CITY           SKY/WX    TMP DP  RH WIND       PRES   REMARKS
DES MOINES     MOSUNNY   10  -2  58 NW17G24   30.45S WCI  -8
QUAD CITIES    SUNNY     14   1  56 NW10      30.34R WCI   1

......ILLINOIS........

CITY           SKY/WX    TMP DP  RH WIND       PRES   REMARKS
QUINCY         SUNNY     15   3  59 NW17      30.33R WCI  -1
CHICAGO        PTSUNNY   18   1  47 N14       30.24S WCI   4



USA.gov is the U.S. government's official web portal to all federal, state and local government web resources and services.